Tracking 29892 objects as of 21-Nov-2024
HD Live streaming from Space Station
objects crossing your sky now

STARLINK-2296

Track STARLINK-2296 now!
10-day predictions
STARLINK-2296 is classified as:


NORAD ID: 47998
Int'l Code: 2021-024X
Perigee: 486.1 km
Apogee: 487.7 km
Inclination: 53.0 °
Period: 94.2 minutes
Semi major axis: 6857 km
RCS: Unknown
Launch date: March 24, 2021
Source: United States (US)
Launch site: AIR FORCE EASTERN TEST RANGE (AFETR)
Your satellite tracking list
Your tracking list is empty




NASA's NSSDC Master Catalog

Two Line Element Set (TLE):
1 47998U 21024X   24325.91668981  .00458736  00000-0  15260-1 0  9998
2 47998  53.0499 252.0614 0001145  85.9507 286.2008 15.28681151203340
Source of the keplerian elements: AFSPC